Starlink 30347

operational
NORAD ID: 57699 Int'l Des: 2023-129 Owner: SPXS Country: US Constellation: starlink
LEOCIRCULAR

Über Starlink 30347

Beschreibung wird geladen...

Live-Position

3D-Globus wird geladen...

Nächste Überflüge

Höhenverlauf

Altitude vs Time

uPlot chart will show altitude changes over time

Zweizeiliger Elementsatz

1 57699U 23129B 26037.07223002 .00001972 00000-0 16100-3 0 9997
2 57699 43.0035 279.7088 0001000 273.2374 86.8354 15.02540940136041
Epoch: 6. Feb. 2026 • Age: 11 hours

Aktueller Status

Höhe 558.4 km
Geschwindigkeit 7.59 km/s
Subsatellitenpunkt 16.25°N, 36.54°W
Startdatum 27. Aug. 2023
Alter 2.4 years
Typ internet

Technische Details

Klassifizierung Payload
Masse 730.00 kg
Trockenmasse 700.00 kg
Gesamtmasse 730.00 kg
Länge 0.30 m
Durchmesser 4.10 m
Spannweite 29.00 m
Form Box + pan
Hersteller SPXS
Bus-Typ Starlink V2M
Phasenstatus In Orbit
Besitzer/Staat SPXS/US

Große Konstellationen

Loading constellations...